Zurück zum Katalog

ARIANE 2 DEB

LostGTO
NORAD 28565·DEBRIS·🇫🇷 France

Gestartet Jan 27, 1989 von Guiana Space Centre

Loading…

TLE

VeraltetSource: Space-Track

Epoche: May 31, 2026, 21:22 UTC

1 28565U 89006AG  26151.89089665  .00000265  00000-0  22489-2 0  9995
2 28565   8.5151 314.3484 7089191 320.8251   4.8491  2.39503558190210

Verfolge ARIANE 2 DEB in Echtzeit mit AllMySat

Download on the App Store